Location: Napa Junction
(38.1874°N, 122.2508°W)
Time: 22:02:21
(UTC+00:00)

CENTAUR R/B - Pass Details

Date: 05 December 2024
Orbit: 654 x 1528 km, 63.4° (Epoch: 19 January)

Event Time Altitude Azimuth Distance (km) Brightness Sun altitude
Rises 13:59:51 0° 171° (S) 3,108 5.5 -13.7°
Reaches altitude 10° 14:02:32 10° 155° (SSE) 2,283 5.1 -13.2°
Maximum altitude 14:06:25 21° 106° (ESE) 1,778 5.0 -12.4°
Drops below altitude 10° 14:10:52 10° 59° (ENE) 2,658 5.4 -11.6°
Sets 14:14:16 0° 45° (NE) 3,779 5.9 -11.0°
